Find Kosmos-1869

NORAD ID: 18214 Int'l Des: 1987-062 Owner: GMS/YUZH Country: SU operational
LEOCIRCULARPOLAR

实时位置

正在加载3D地球...

关于 Kosmos-1869

正在加载描述...

即将过境

Passes for default location (London). Set your location on the main map for personalized predictions.

高度历史

Loading altitude history...

两行轨道根数

1 18214U 87062A 26105.66534957 .00005100 00000-0 14275-3 0 9996
2 18214 82.5120 164.2559 0015762 287.0840 72.8677 15.36265388 94960
Epoch: Apr 15, 2026 • Age: 15 hours

当前状态

高度 470.2 km
速度 7.63 km/s
星下点 34.94°N, 33.96°E
发射日期 Jul 16, 1987
运行时间 38.7 years
类型 other

技术详情

分类 Payload
质量 1936.00 kg
干质量 1936.00 kg
总质量 1936.00 kg
长度 5.00 m
直径 2.40 m
跨度 21.50 m
形状 Cyl + 2 Pan + Ant
制造商 YUZH
平台类型 Okean
阶段状态 In Orbit
所有者/国家 GMS/YUZH/SU

Most Searched